Dewpoint
70 67 71 71 70 69 69 68 58 61 60 49 47 48 49 52 53 52 53 55 53 55 52 51 53 55 56 51 53 53 53 56 54 53 55 61 64 63 64 65 65 68 69 70 71 73 74 75 75 75 75 74 74 75 75 75 74 75 75 75 75 75 74 74 74 74 74 72 72 73 75 75 74 74 74 74 75 75 75 76 75 75 76 76 75 75 75 75 75 75 75 75 75 75 75 75 75
68 70 70 70 69 69 67 68 60 51 50 47 50 51 52 53 53 53 53 54 52 49 50 51 51 57 56 52 50 50 52 54 56 58 58 59 60 62 64 65 64 67 67 68 70 71 72 74 75 75 75 75 74 74 74 75 75 75 75 75 75 75 74 74 74 74 73 73 73 75 75 75 75 75 74 74 75 75 75 76 76 76 76 75 75 75 75 75 75 75 75 75 75 75 75 75 75
67 66 68 70 69 68 68 66 55 45 46 46 49 51 54 53 53 53 54 53 49 49 52 54 56 56 54 55 52 54 51 54 57 57 58 59 60 64 62 63 66 65 65 66 68 70 71 74 75 75 75 74 74 74 74 74 75 75 75 75 75 75 75 74 74 74 74 73 75 75 75 75 75 74 74 74 74 75 76 75 76 76 76 75 75 76 76 75 75 76 75 75 75 75 75 75 75
70 68 68 69 66 69 62 61 55 43 45 48 50 54 53 54 53 54 53 51 51 51 52 54 53 59 53 50 50 53 54 54 56 57 57 57 59 61 62 63 66 65 65 66 67 70 72 75 75 75 75 74 73 74 74 73 74 75 75 75 75 75 75 74 75 75 75 75 74 74 73 74 74 74 75 75 74 75 76 76 76 76 76 76 75 76 75 75 75 74 76 75 75 75 75 75 75
71 70 71 70 67 62 62 56 50 42 44 49 49 53 54 53 54 54 52 51 54 53 53 52 54 54 56 53 53 53 53 55 54 55 55 57 59 61 64 62 63 63 65 70 68 68 74 75 75 75 75 75 74 74 74 75 75 75 75 75 75 75 75 75 74 75 75 74 73 73 74 74 74 74 75 74 74 74 75 75 75 75 75 75 75 75 76 75 75 75 75 75 75 75 75 75 75
69 76 73 72 66 68 64 57 48 46 48 52 52 52 53 55 56 54 52 52 54 56 56 54 49 52 53 55 53 52 55 54 57 59 58 57 60 61 63 66 64 64 70 70 72 71 73 76 76 75 74 74 74 75 75 75 75 75 75 75 74 75 74 73 74 73 74 73 75 73 74 74 75 74 74 74 73 74 75 75 75 75 75 75 76 75 75 76 76 76 76 76 75 75 74 74 75
73 73 70 70 67 64 58 51 47 49 51 55 52 54 55 55 55 54 53 52 53 54 54 50 50 50 50 53 54 55 55 57 56 58 58 59 61 63 65 65 64 65 70 71 71 72 75 76 75 75 74 74 74 74 74 74 75 75 75 75 75 73 74 73 73 73 74 74 75 75 74 75 74 75 74 74 74 74 74 75 75 75 75 75 75 75 75 75 76 76 75 75 75 75 74 74 74
73 71 67 64 61 63 55 47 46 53 53 56 56 55 57 57 57 56 54 52 52 53 53 52 52 52 54 54 54 58 59 59 58 60 60 60 62 64 65 64 64 65 70 72 73 74 77 75 75 75 74 74 74 74 74 74 75 75 75 75 74 73 73 72 74 74 74 74 74 75 74 75 75 75 74 74 74 74 74 75 75 75 75 75 75 75 75 75 75 74 75 75 75 75 74 74 74
72 72 71 63 60 58 54 49 49 56 56 57 58 60 60 59 58 57 56 56 53 53 51 50 50 52 52 53 55 58 59 60 60 62 60 61 62 63 62 63 62 64 70 71 70 72 74 75 75 74 74 74 74 74 74 74 75 75 74 75 74 74 73 73 73 74 73 74 74 74 75 75 74 75 75 74 73 74 74 75 75 75 75 75 75 75 75 74 74 74 75 75 75 75 74 74 74
71 72 64 62 59 54 49 46 46 53 56 57 57 60 61 60 59 59 57 56 56 54 55 53 52 52 51 51 54 56 58 59 59 59 61 61 61 61 61 61 60 67 70 70 72 73 74 76 74 74 74 74 74 74 75 75 74 73 73 74 74 73 73 74 74 73 74 74 74 75 75 75 74 75 75 75 75 74 74 73 75 75 75 75 74 75 74 74 74 75 75 75 75 74 74 74 74
67 67 66 60 56 56 46 47 50 55 57 59 59 62 62 60 60 58 59 58 55 54 52 50 48 48 50 54 57 58 58 58 58 58 60 60 61 61 61 62 62 71 71 71 72 73 74 74 75 74 74 74 74 74 74 74 73 73 73 74 74 74 74 74 73 73 73 74 74 75 74 75 75 75 75 75 75 74 75 75 75 75 74 75 75 74 75 74 75 75 75 75 75 74 74 74 74
65 66 66 60 56 51 46 47 52 55 57 58 59 62 62 61 60 59 58 57 55 53 52 52 49 51 52 54 56 57 57 58 59 59 59 59 59 60 61 62 67 70 72 71 73 74 74 74 74 74 73 73 74 74 73 73 73 74 73 73 74 74 74 73 73 74 74 74 74 74 74 75 74 75 74 75 75 75 75 74 75 75 75 75 75 74 74 75 75 75 75 75 74 74 75 75 75
66 68 65 60 55 50 49 49 50 55 55 55 58 61 61 60 60 58 58 57 54 52 53 52 48 48 48 52 56 55 57 58 59 59 58 58 58 59 62 64 66 67 68 71 71 74 74 74 73 74 74 73 74 74 73 73 74 74 73 73 74 74 74 74 74 74 74 75 74 74 74 75 75 75 75 75 75 75 75 75 75 74 74 75 75 74 74 75 75 74 75 75 74 74 74 75 75
67 68 61 55 56 50 46 49 51 49 53 57 59 61 62 60 59 60 56 57 55 57 53 50 49 50 53 53 55 55 57 58 59 58 57 56 57 60 62 64 65 70 69 71 70 70 72 74 74 74 75 75 75 73 73 73 74 73 73 74 74 74 74 74 74 75 74 75 74 74 74 74 74 74 75 74 75 75 75 75 75 75 74 75 74 74 75 75 75 74 75 75 75 75 75 75 75
64 70 64 60 50 49 50 44 45 52 53 58 60 62 62 61 60 59 60 59 57 53 52 53 49 49 47 51 52 55 57 58 57 57 56 57 60 62 64 65 65 65 65 66 68 69 72 73 74 74 74 74 75 75 74 74 73 73 74 74 74 74 74 74 75 75 74 74 75 75 74 75 74 74 74 74 75 75 75 75 75 75 75 75 75 75 75 75 75 75 75 76 75 75 75 75 75
65 67 64 58 47 48 46 45 48 52 54 57 60 60 60 60 62 61 62 58 53 52 52 49 52 56 45 47 53 56 57 57 56 56 57 60 63 63 64 64 64 64 65 66 67 69 69 71 71 73 74 74 74 74 75 74 73 73 74 73 73 74 74 74 74 73 73 74 74 74 74 74 74 74 75 74 74 74 74 74 75 75 75 75 75 75 75 75 75 75 75 75 75 75 75 75 75
65 65 59 58 47 48 48 44 45 49 55 58 60 59 58 60 62 60 61 57 52 52 53 50 47 48 47 50 56 57 57 56 58 57 59 61 63 63 64 65 64 64 65 67 68 68 68 70 72 72 73 74 73 73 73 74 73 73 73 73 74 74 73 74 74 74 74 75 75 74 74 73 74 74 74 73 74 74 75 75 75 75 74 75 75 75 75 74 74 75 75 75 75 75 75 75 75
66 61 60 56 58 58 57 54 53 52 55 56 59 58 57 57 59 58 58 56 56 53 50 49 50 51 53 56 57 56 55 55 56 57 59 61 62 61 62 62 66 65 65 68 68 68 69 71 73 72 72 74 72 72 73 74 74 73 74 74 74 73 73 73 73 74 74 75 75 74 75 74 74 74 74 74 74 74 74 75 75 75 75 75 75 75 75 75 75 75 75 74 74 75 75 75 75
61 62 64 58 59 61 63 56 53 53 54 58 58 57 56 57 58 59 57 55 54 50 50 51 51 52 53 55 55 54 54 55 56 57 58 60 60 61 61 63 64 63 64 65 68 68 69 70 70 73 73 74 72 71 71 73 73 73 72 74 73 73 74 73 73 73 74 75 75 74 75 75 75 75 75 74 74 74 74 75 74 75 75 74 75 75 74 75 74 74 74 74 75 74 75 74 70
65 59 56 60 61 61 65 64 61 55 57 58 58 57 58 57 58 57 56 52 52 51 49 50 50 50 52 53 53 53 54 56 59 58 57 59 60 60 61 61 62 69 65 63 65 67 68 69 70 72 73 73 74 70 73 73 72 73 73 73 73 73 74 74 73 73 74 74 74 74 75 74 74 75 74 74 75 74 75 76 74 74 73 73 73 73 73 73 73 73 75 74 74 74 73 67 64
60 60 56 58 62 58 63 65 60 56 58 58 59 58 57 57 57 57 55 53 55 54 51 50 49 50 50 52 52 54 56 57 58 57 57 58 58 60 60 61 61 63 64 66 67 67 69 71 71 73 73 73 73 72 71 72 72 73 72 72 73 74 72 73 73 73 73 74 75 76 75 75 75 75 74 73 74 75 74 72 71 70 70 72 73 71 71 70 73 70 71 73 72 71 66 66 66
61 56 58 61 62 61 65 65 61 57 59 59 57 57 56 58 59 56 55 53 51 52 50 51 51 51 51 52 54 56 56 56 56 58 58 58 59 59 60 61 62 64 66 67 67 69 68 70 71 72 72 73 73 73 72 74 74 70 71 72 73 73 73 73 74 74 75 74 76 76 75 75 74 75 75 75 75 74 71 67 66 68 69 70 72 69 67 69 71 67 67 68 66 64 63 66 65
56 58 61 63 62 62 65 66 64 60 60 59 58 57 57 59 59 59 57 55 55 55 51 52 52 52 53 54 55 55 55 56 57 58 57 57 58 58 60 63 63 64 66 67 68 68 69 69 71 71 71 72 73 74 72 74 73 73 71 72 72 72 72 73 74 75 74 75 75 75 75 75 74 73 74 74 73 72 65 64 65 68 69 69 68 66 67 67 66 63 64 66 65 59 61 65 64
53 57 60 64 66 63 66 65 64 59 60 59 59 58 59 58 57 57 56 54 57 54 52 52 52 53 54 54 55 55 56 56 57 57 57 56 57 58 60 62 63 65 67 67 67 68 69 70 71 72 72 72 72 73 73 74 72 71 72 72 72 68 70 72 73 75 75 76 75 75 76 74 71 70 72 71 68 65 64 66 67 65 66 67 66 67 65 64 64 64 66 66 65 65 61 62 61
58 60 60 64 65 65 64 63 62 62 61 61 60 59 59 59 56 55 54 54 52 52 53 53 53 53 53 55 55 56 57 56 56 56 57 58 58 58 60 62 64 65 65 66 66 67 68 69 70 70 71 71 70 72 71 72 72 72 74 75 73 72 74 72 74 73 72 72 74 74 72 69 67 67 66 66 66 65 65 65 65 64 67 68 68 64 66 67 66 65 68 66 67 67 63 63 63
61 60 60 63 64 65 64 66 65 62 63 63 60 58 59 60 56 55 55 53 54 53 53 53 53 53 54 54 56 56 57 56 56 56 57 58 57 58 60 62 62 62 63 64 66 68 68 68 68 69 69 70 69 68 73 71 72 73 73 75 74 75 71 70 71 70 70 70 71 71 67 65 64 63 64 66 65 65 65 66 68 67 66 67 67 67 68 67 65 68 67 68 66 66 64 66 64
58 60 62 62 64 65 65 66 66 65 64 62 61 59 60 60 60 53 56 53 52 53 52 53 53 53 53 54 55 57 56 55 55 56 57 57 57 59 60 61 62 61 63 63 65 67 69 68 69 70 70 71 69 68 71 73 73 71 71 71 72 71 71 72 70 68 68 69 72 74 72 69 63 61 63 65 65 68 69 70 68 69 66 67 68 67 68 69 67 69 67 68 69 68 65 64 63
62 60 60 62 64 65 64 66 65 66 63 61 62 61 61 58 59 53 55 53 52 53 52 53 53 54 54 55 56 58 57 57 58 57 57 56 57 59 60 63 61 61 62 63 66 68 66 66 68 69 69 70 71 70 72 71 72 71 72 71 70 71 71 69 66 67 68 69 71 73 71 67 67 64 67 69 70 69 70 70 68 69 68 67 68 66 67 68 68 67 69 69 69 69 67 66 68
62 60 60 61 64 64 65 65 65 66 62 65 62 61 59 57 58 56 52 53 53 54 52 52 53 54 55 56 56 59 59 59 58 57 57 58 58 58 60 61 60 62 63 63 65 65 65 66 67 68 69 71 70 69 69 70 70 69 70 69 70 69 70 68 67 68 70 71 72 73 74 70 71 72 73 71 71 69 68 68 67 69 70 70 69 67 67 70 67 66 69 69 68 68 66 67 62
63 62 59 59 60 61 65 65 64 63 63 67 63 51 55 57 58 56 56 52 52 55 53 52 52 53 54 55 56 57 58 58 58 59 60 59 58 58 60 60 61 61 63 63 63 63 65 66 66 66 68 68 69 68 70 68 69 69 68 68 70 69 66 67 68 69 69 70 73 74 73 73 73 73 74 73 69 69 70 70 69 69 71 71 69 69 65 65 65 67 66 67 66 68 65 67 62
58 60 60 56 55 57 63 63 63 60 64 66 65 52 53 58 58 57 55 53 50 51 51 51 51 52 54 54 56 57 57 59 59 60 59 60 58 58 60 61 63 62 63 62 63 63 64 66 65 65 67 68 68 68 68 69 68 66 66 67 69 69 68 66 65 67 66 68 70 71 72 74 75 76 75 73 71 69 68 69 70 71 73 72 66 67 66 67 68 67 67 68 68 66 64 64 65
56 56 52 54 55 58 62 64 63 60 61 66 63 54 53 57 58 57 57 55 51 49 50 51 50 51 52 54 55 56 57 58 59 59 59 59 59 58 59 61 61 60 62 63 63 63 63 64 66 65 66 67 69 69 69 69 67 67 67 68 69 69 66 65 65 64 65 65 67 71 74 75 75 76 75 76 72 70 67 69 70 73 75 73 70 68 70 68 68 68 67 68 67 64 66 63 65
61 56 51 53 54 58 59 61 63 61 61 64 60 55 57 56 59 55 56 57 54 51 48 50 50 50 50 53 54 55 56 57 58 58 60 61 59 58 60 61 61 62 62 62 62 63 63 64 65 64 65 66 68 67 70 69 69 68 68 67 66 69 65 65 64 65 64 65 67 68 74 74 75 76 76 75 76 70 68 69 68 72 73 72 72 71 70 68 68 63 70 70 68 69 64 59 61
51 53 53 55 53 56 56 61 63 63 60 59 59 62 59 62 58 56 56 58 56 53 51 50 52 50 51 52 53 55 56 57 58 60 60 61 60 59 59 63 62 62 63 61 63 62 61 63 63 64 66 66 68 69 70 69 69 70 69 67 69 67 64 64 64 65 66 65 68 69 73 74 75 76 76 76 77 73 72 72 70 73 73 73 73 71 70 68 69 66 68 70 68 69 66 63 62
46 52 51 51 54 54 56 56 60 62 60 58 55 59 60 61 57 56 56 57 56 54 53 51 50 51 51 50 52 55 55 57 57 60 60 61 60 59 59 61 62 62 62 62 64 64 63 64 65 67 66 67 68 70 71 70 70 70 66 67 68 67 68 65 64 64 65 67 67 71 74 73 75 76 76 75 77 70 72 71 73 74 73 74 74 72 70 71 72 69 68 68 70 70 66 66 64
48 52 54 51 51 52 54 59 61 61 56 56 54 58 59 59 56 54 57 59 57 56 55 54 53 51 52 51 51 54 56 55 58 59 60 61 61 60 59 61 61 62 62 63 66 64 66 67 66 67 68 67 69 70 71 67 67 67 64 66 67 66 66 65 67 66 67 68 68 70 73 74 75 77 77 77 77 76 72 71 73 73 73 73 73 71 70 73 75 73 70 67 68 66 66 67 64
49 55 55 52 53 55 59 60 60 60 58 52 53 54 54 54 55 57 57 58 59 57 56 55 55 53 50 49 51 54 57 55 57 59 60 61 61 61 61 61 61 62 65 64 64 64 65 66 67 67 67 69 69 68 69 65 65 65 65 62 63 64 67 67 66 67 67 67 70 71 74 72 76 77 77 77 74 73 73 75 75 74 73 74 74 72 73 73 75 74 71 73 67 68 66 62 61
50 52 55 53 56 55 59 60 61 61 55 54 55 55 56 56 58 58 58 57 57 56 56 55 54 53 51 51 52 54 56 56 57 58 59 61 60 62 61 61 63 62 65 65 65 64 65 65 66 67 67 68 68 67 67 65 67 65 63 63 61 62 65 66 68 68 66 69 75 73 73 73 76 77 76 78 77 75 74 74 74 75 73 75 75 75 76 75 76 75 72 71 67 66 65 64 59
52 51 48 50 55 57 58 61 62 62 60 58 58 56 57 58 58 59 60 58 56 56 56 56 55 53 52 50 52 55 55 57 56 57 58 59 61 61 61 61 61 62 64 64 65 65 65 66 67 68 68 67 67 68 68 67 66 67 65 63 62 61 63 66 65 67 68 68 71 73 74 76 75 76 76 75 75 74 73 73 73 75 75 75 77 76 77 78 75 73 74 72 72 65 65 62 63
52 46 47 51 54 48 52 59 60 60 59 58 57 55 57 58 59 58 61 57 58 58 58 58 57 55 52 49 51 54 54 58 56 58 56 57 60 61 62 62 62 62 64 63 64 65 65 68 68 69 69 68 68 69 69 67 68 68 68 67 66 65 65 68 69 69 69 69 69 72 75 75 74 72 72 72 72 74 75 74 72 75 74 75 75 75 75 74 75 73 71 72 73 73 67 61 62
44 49 53 45 48 49 50 56 61 61 59 59 57 54 53 57 57 58 58 62 59 59 58 59 57 57 54 50 52 54 54 58 58 57 57 57 59 60 62 62 61 62 62 63 63 63 63 66 69 70 69 68 69 70 70 70 70 70 68 68 69 68 69 70 68 67 69 70 69 71 71 74 74 71 72 74 74 76 77 76 75 73 74 75 73 74 73 70 71 73 72 72 72 72 73 66 64
48 51 51 43 48 48 50 58 58 56 53 57 54 46 46 53 57 57 57 59 57 58 58 58 58 57 56 51 52 54 55 57 58 57 57 57 59 61 62 62 61 61 61 62 62 62 64 66 69 70 69 68 68 70 71 71 72 71 70 69 68 68 67 66 66 65 65 66 66 67 71 71 71 72 72 74 74 73 76 77 75 74 75 72 72 72 71 68 71 73 72 72 72 72 74 73 71
41 42 44 42 43 52 49 55 55 51 50 53 55 46 45 50 52 54 56 54 56 58 57 57 58 57 56 55 52 52 53 55 57 56 57 56 59 60 62 61 61 60 61 61 61 63 64 66 69 70 70 69 68 72 72 72 71 70 70 67 67 67 66 65 66 64 64 63 67 70 70 70 72 70 71 72 74 75 77 77 77 75 73 72 72 71 70 72 71 71 72 74 72 74 74 75 73
36 46 44 42 42 46 49 49 49 53 54 55 54 51 53 48 47 48 52 53 53 56 57 57 56 58 55 55 50 54 53 54 55 57 58 58 60 60 61 60 60 59 60 60 60 62 65 69 70 70 70 70 69 71 72 72 71 70 70 67 65 65 64 65 66 68 67 67 68 69 68 70 71 72 73 75 75 76 77 75 76 76 74 72 72 71 70 71 73 73 73 74 74 76 74 73 71
32 46 41 42 43 46 49 53 51 50 51 51 50 51 53 52 49 51 56 53 52 54 57 57 58 58 57 55 51 51 53 54 54 54 56 58 59 59 60 61 59 59 59 59 60 63 65 68 71 71 71 70 69 71 72 72 72 71 70 67 66 66 65 65 67 69 68 69 70 70 70 69 70 71 73 73 74 75 75 76 77 77 74 73 72 72 69 70 71 74 73 75 74 74 73 73 74
29 38 38 39 39 40 45 46 48 53 51 48 51 50 49 51 54 53 56 55 53 54 57 57 57 58 57 55 53 52 53 54 53 54 56 57 58 59 59 60 60 59 59 60 59 62 65 68 70 71 71 71 70 72 72 72 72 72 71 69 68 66 66 67 67 67 69 69 69 70 70 73 70 70 70 73 75 75 74 75 74 73 73 71 71 76 73 73 73 73 74 73 74 75 74 72 73
39 36 37 38 40 45 53 50 47 54 47 48 49 51 50 47 52 55 57 55 55 53 56 59 58 58 59 57 53 52 52 53 53 54 55 57 58 59 59 59 60 60 61 60 60 62 64 67 70 71 72 71 71 72 72 71 71 72 71 70 69 69 67 67 68 69 69 70 69 68 69 70 70 70 69 70 71 70 72 74 72 71 72 73 71 76 72 70 72 71 70 75 74 74 74 73 71
33 33 35 38 43 45 46 50 48 45 44 48 52 51 48 44 50 53 55 54 53 56 56 56 56 56 56 58 54 51 51 52 52 52 53 56 59 59 60 60 60 61 61 62 61 61 64 66 69 72 72 72 72 72 72 71 69 71 71 71 70 70 69 67 69 71 70 71 70 69 71 71 70 69 71 72 71 68 72 71 72 73 73 73 72 71 72 73 73 74 74 75 74 74 74 74 72
30 30 35 32 40 44 40 45 45 42 44 50 49 50 52 45 47 51 52 53 52 58 58 57 55 54 55 56 56 54 50 50 52 53 53 54 56 59 59 61 62 63 63 64 62 62 63 66 69 71 72 72 73 72 72 72 71 71 71 70 71 71 70 70 69 70 71 71 69 68 72 72 71 72 70 67 70 70 73 73 73 73 75 74 77 77 76 76 75 75 74 73 72 75 76 75 73
28 31 32 34 37 39 39 40 43 43 43 46 54 53 48 48 49 50 50 53 56 53 54 53 54 55 55 55 56 54 52 50 51 51 52 54 57 57 60 61 62 62 61 62 63 64 64 65 69 70 72 73 73 72 72 72 71 71 71 70 70 70 71 70 70 69 70 71 70 70 69 68 70 69 67 68 68 68 69 71 73 75 77 77 77 75 76 76 76 74 74 74 73 75 76 77 74
25 30 28 32 37 40 36 40 38 39 42 45 53 41 48 46 54 57 61 57 59 59 59 59 56 56 56 54 55 55 53 52 51 52 51 53 55 58 59 60 62 62 62 62 63 65 67 67 69 70 71 72 72 72 72 72 71 71 71 70 70 70 68 68 68 69 70 70 68 69 70 69 67 68 66 69 70 71 71 72 73 73 76 77 76 76 72 74 76 75 75 75 77 75 75 73 72
32 30 31 29 32 40 37 39 43 40 46 41 46 44 54 49 55 56 61 62 61 62 58 59 60 59 57 53 53 56 55 52 50 52 52 54 56 58 58 60 61 62 64 63 63 65 65 67 69 70 71 71 72 73 72 71 72 71 72 72 71 71 71 68 69 70 71 71 71 70 71 72 70 70 71 71 70 71 71 71 73 73 76 77 77 76 75 73 76 74 74 73 73 69 71 73 73
23 29 33 27 30 36 39 39 43 41 43 44 44 44 47 56 50 49 52 59 59 59 59 52 54 62 60 57 53 54 57 54 52 51 53 56 55 56 58 60 60 60 61 62 64 65 68 68 68 70 71 70 70 73 71 71 72 71 71 71 70 70 69 68 65 67 67 69 72 72 70 69 69 71 70 70 71 72 72 71 71 70 74 76 76 76 75 74 78 76 74 76 74 72 74 74 73
33 31 30 30 34 35 37 40 39 37 38 44 44 45 46 44 43 52 57 58 57 55 56 55 57 58 60 60 58 58 59 61 61 54 56 57 58 57 58 59 59 60 60 62 65 64 66 66 68 68 69 70 69 70 69 70 71 70 71 71 71 70 68 66 65 65 66 69 69 71 70 69 69 68 68 68 71 72 74 74 73 73 74 74 74 74 75 74 76 75 72 75 76 75 74 74 73
26 32 33 29 36 32 36 36 35 34 35 38 42 44 50 46 47 52 55 56 57 57 58 57 55 55 56 58 59 62 62 62 62 63 56 57 57 59 60 60 57 60 62 62 62 62 64 65 65 66 68 67 67 67 68 69 69 68 68 69 69 70 68 67 65 66 67 66 66 67 68 69 68 70 71 72 73 71 72 74 74 73 73 74 75 74 75 75 76 75 73 73 74 76 75 73 74
23 27 27 31 31 29 28 34 34 39 43 35 42 40 46 52 50 53 54 57 59 57 60 60 55 55 55 57 59 61 64 65 65 63 62 56 57 60 60 60 60 60 62 62 61 61 61 64 66 66 67 66 67 67 68 68 67 67 66 68 69 70 70 67 67 66 63 64 65 66 68 66 67 68 69 70 70 71 71 71 72 70 69 71 72 72 72 74 75 75 73 70 71 75 75 75 73
25 26 26 26 28 25 27 30 34 38 38 38 38 35 45 53 57 55 57 59 60 61 60 61 61 58 56 58 59 61 61 64 64 66 63 57 56 57 58 60 61 61 62 63 62 63 64 64 64 64 67 66 66 65 66 69 68 68 68 67 66 67 67 66 65 64 64 64 64 66 66 67 68 68 69 69 70 71 71 71 70 71 69 70 73 73 71 73 76 76 75 74 74 74 75 74 75
36 26 25 23 23 24 27 29 35 36 35 34 34 38 48 53 55 57 59 60 61 62 61 58 62 57 59 58 61 62 62 62 63 62 60 62 64 60 57 59 61 62 62 63 63 64 64 65 65 65 65 65 65 64 66 69 69 68 68 67 66 66 67 66 64 64 64 63 63 64 66 66 66 69 69 68 70 70 70 70 70 70 71 69 72 74 71 71 73 76 76 74 71 74 76 76 75